Time,TemperatureF,DewpointF,PressureIn,WindDirection,WindDirectionDegrees,WindSpeedMPH,WindSpeedGustMPH,Humidity,HourlyPrecipIn,Conditions,Clouds,dailyrainin,SoftwareType,DateUTC
2013-02-19 00:02:00,21.0,16.0,-100.00,North,5,0.0,0.0,81,-99.99,,,-99.99,,2013-02-19 06:02:00,
2013-02-19 00:12:00,21.0,16.0,-100.00,North,5,0.0,0.0,82,-99.99,,,-99.99,,2013-02-19 06:12:00,
2013-02-19 00:22:00,20.0,15.0,-100.00,North,5,0.0,0.0,80,-99.99,,,-99.99,,2013-02-19 06:22:00,
2013-02-19 00:32:00,20.0,15.0,-100.00,North,5,0.0,0.0,80,-99.99,,,-99.99,,2013-02-19 06:32:00,
2013-02-19 00:42:00,20.0,15.0,-100.00,North,5,0.0,0.0,81,-99.99,,,-99.99,,2013-02-19 06:42:00,
2013-02-19 00:52:00,19.0,13.0,-100.00,North,5,0.0,0.0,79,-99.99,,,-99.99,,2013-02-19 06:52:00,
2013-02-19 01:01:00,19.0,13.0,-100.00,North,5,0.0,0.0,79,-99.99,,,-99.99,,2013-02-19 07:01:00,
2013-02-19 01:11:00,18.0,13.0,-100.00,North,5,0.0,0.0,78,-99.99,,,-99.99,,2013-02-19 07:11:00,
2013-02-19 01:22:00,19.0,13.0,-100.00,North,5,0.0,0.0,78,-99.99,,,-99.99,,2013-02-19 07:22:00,
2013-02-19 01:32:00,19.0,13.0,-100.00,North,5,0.0,0.0,78,-99.99,,,-99.99,,2013-02-19 07:32:00,
2013-02-19 01:42:00,18.0,12.0,-100.00,North,5,0.0,0.0,77,-99.99,,,-99.99,,2013-02-19 07:42:00,
2013-02-19 01:52:00,18.0,12.0,-100.00,North,5,0.0,0.0,77,-99.99,,,-99.99,,2013-02-19 07:52:00,
2013-02-19 02:02:00,18.0,12.0,-100.00,North,5,0.0,0.0,77,-99.99,,,-99.99,,2013-02-19 08:02:00,
2013-02-19 02:11:00,18.0,12.0,-100.00,North,5,0.0,0.0,77,-99.99,,,-99.99,,2013-02-19 08:11:00,
2013-02-19 02:21:00,17.0,12.0,-100.00,North,5,0.0,0.0,80,-99.99,,,-99.99,,2013-02-19 08:21:00,
2013-02-19 02:32:00,17.0,12.0,-100.00,North,5,0.0,0.0,80,-99.99,,,-99.99,,2013-02-19 08:32:00,
2013-02-19 02:42:00,16.0,11.0,-100.00,North,5,0.0,0.0,79,-99.99,,,-99.99,,2013-02-19 08:42:00,
2013-02-19 02:52:00,16.0,10.0,-100.00,North,5,0.0,0.0,77,-99.99,,,-99.99,,2013-02-19 08:52:00,
2013-02-19 03:01:00,16.0,10.0,-100.00,North,5,0.0,0.0,77,-99.99,,,-99.99,,2013-02-19 09:01:00,
2013-02-19 03:11:00,16.0,11.0,-100.00,North,5,0.0,0.0,80,-99.99,,,-99.99,,2013-02-19 09:11:00,
2013-02-19 03:22:00,15.0,10.0,-100.00,North,5,0.0,0.0,79,-99.99,,,-99.99,,2013-02-19 09:22:00,
2013-02-19 03:32:00,15.0,10.0,-100.00,North,5,0.0,0.0,79,-99.99,,,-99.99,,2013-02-19 09:32:00,
2013-02-19 03:42:00,15.0,9.0,-100.00,North,5,0.0,0.0,78,-99.99,,,-99.99,,2013-02-19 09:42:00,
2013-02-19 03:53:00,15.0,9.0,-100.00,North,5,0.0,0.0,77,-99.99,,,-99.99,,2013-02-19 09:53:00,
2013-02-19 04:02:00,15.0,9.0,-100.00,North,5,0.0,0.0,77,-99.99,,,-99.99,,2013-02-19 10:02:00,
2013-02-19 04:11:00,14.0,8.0,-100.00,North,5,0.0,0.0,79,-99.99,,,-99.99,,2013-02-19 10:11:00,
2013-02-19 04:22:00,13.0,7.0,-100.00,North,5,0.0,0.0,77,-99.99,,,-99.99,,2013-02-19 10:22:00,
2013-02-19 04:32:00,13.0,7.0,-100.00,North,5,0.0,0.0,77,-99.99,,,-99.99,,2013-02-19 10:32:00,
2013-02-19 04:42:00,13.0,7.0,-100.00,North,5,0.0,0.0,77,-99.99,,,-99.99,,2013-02-19 10:42:00,
2013-02-19 04:52:00,13.0,7.0,-100.00,North,5,0.0,0.0,76,-99.99,,,-99.99,,2013-02-19 10:52:00,
2013-02-19 05:01:00,13.0,7.0,-100.00,North,5,0.0,0.0,76,-99.99,,,-99.99,,2013-02-19 11:01:00,
2013-02-19 05:11:00,13.0,7.0,-100.00,North,5,0.0,0.0,76,-99.99,,,-99.99,,2013-02-19 11:11:00,
2013-02-19 05:22:00,12.0,6.0,-100.00,North,5,0.0,0.0,77,-99.99,,,-99.99,,2013-02-19 11:22:00,
2013-02-19 05:32:00,12.0,6.0,-100.00,North,5,0.0,0.0,77,-99.99,,,-99.99,,2013-02-19 11:32:00,
2013-02-19 05:42:00,11.0,5.0,-100.00,North,5,0.0,0.0,76,-99.99,,,-99.99,,2013-02-19 11:42:00,
2013-02-19 05:52:00,11.0,5.0,-100.00,North,5,0.0,0.0,76,-99.99,,,-99.99,,2013-02-19 11:52:00,
2013-02-19 06:02:00,11.0,5.0,-100.00,North,5,0.0,0.0,76,-99.99,,,-99.99,,2013-02-19 12:02:00,
2013-02-19 06:12:00,11.0,5.0,-100.00,North,5,0.0,0.0,77,-99.99,,,-99.99,,2013-02-19 12:12:00,
2013-02-19 06:22:00,11.0,5.0,-100.00,North,5,15.0,30.0,76,-99.99,,,-99.99,,2013-02-19 12:22:00,
2013-02-19 06:32:00,11.0,5.0,-100.00,North,5,15.0,30.0,76,-99.99,,,-99.99,,2013-02-19 12:32:00,
2013-02-19 06:42:00,11.0,5.0,-100.00,North,5,9.0,32.0,76,-99.99,,,-99.99,,2013-02-19 12:42:00,
2013-02-19 06:52:00,10.0,4.0,-100.00,North,5,14.0,31.0,75,-99.99,,,-99.99,,2013-02-19 12:52:00,
2013-02-19 07:02:00,10.0,4.0,-100.00,North,5,14.0,31.0,75,-99.99,,,-99.99,,2013-02-19 13:02:00,
2013-02-19 07:11:00,10.0,4.0,-100.00,North,5,9.0,24.0,75,-99.99,,,-99.99,,2013-02-19 13:11:00,
2013-02-19 07:22:00,10.0,5.0,-100.00,North,5,13.0,29.0,79,-99.99,,,-99.99,,2013-02-19 13:22:00,
2013-02-19 07:32:00,10.0,5.0,-100.00,North,5,13.0,29.0,79,-99.99,,,-99.99,,2013-02-19 13:32:00,
2013-02-19 07:42:00,10.0,5.0,-100.00,North,5,11.0,21.0,79,-99.99,,,-99.99,,2013-02-19 13:42:00,
2013-02-19 07:52:00,9.0,3.0,-100.00,North,5,7.0,26.0,76,-99.99,,,-99.99,,2013-02-19 13:52:00,
2013-02-19 08:01:00,9.0,3.0,-100.00,North,5,7.0,26.0,76,-99.99,,,-99.99,,2013-02-19 14:01:00,
2013-02-19 08:11:00,9.0,3.0,-100.00,North,5,14.0,22.0,77,-99.99,,,-99.99,,2013-02-19 14:11:00,
2013-02-19 08:21:00,9.0,2.0,-100.00,North,5,13.0,21.0,75,-99.99,,,-99.99,,2013-02-19 14:21:00,
2013-02-19 08:32:00,9.0,2.0,-100.00,North,5,13.0,21.0,75,-99.99,,,-99.99,,2013-02-19 14:32:00,
2013-02-19 08:42:00,9.0,2.0,-100.00,North,5,9.0,28.0,75,-99.99,,,-99.99,,2013-02-19 14:42:00,
2013-02-19 08:52:00,9.0,2.0,-100.00,North,5,16.0,25.0,75,-99.99,,,-99.99,,2013-02-19 14:52:00,
2013-02-19 09:01:00,9.0,2.0,-100.00,North,5,16.0,25.0,75,-99.99,,,-99.99,,2013-02-19 15:01:00,
2013-02-19 09:11:00,9.0,2.0,-100.00,North,5,13.0,28.0,74,-99.99,,,-99.99,,2013-02-19 15:11:00,
2013-02-19 09:21:00,8.0,2.0,-100.00,North,5,14.0,37.0,74,-99.99,,,-99.99,,2013-02-19 15:21:00,
2013-02-19 09:32:00,8.0,2.0,-100.00,North,5,14.0,37.0,74,-99.99,,,-99.99,,2013-02-19 15:32:00,
2013-02-19 09:42:00,9.0,2.0,-100.00,North,5,12.0,31.0,73,-99.99,,,-99.99,,2013-02-19 15:42:00,
2013-02-19 09:52:00,9.0,2.0,-100.00,North,5,11.0,23.0,73,-99.99,,,-99.99,,2013-02-19 15:52:00,
2013-02-19 10:02:00,9.0,2.0,-100.00,North,5,11.0,23.0,73,-99.99,,,-99.99,,2013-02-19 16:02:00,
2013-02-19 10:11:00,9.0,2.0,-100.00,North,5,14.0,26.0,73,-99.99,,,-99.99,,2013-02-19 16:11:00,
2013-02-19 10:22:00,10.0,3.0,-100.00,North,5,9.0,29.0,73,-99.99,,,-99.99,,2013-02-19 16:22:00,
2013-02-19 10:32:00,10.0,3.0,-100.00,North,5,9.0,29.0,73,-99.99,,,-99.99,,2013-02-19 16:32:00,
2013-02-19 10:42:00,10.0,3.0,-100.00,North,5,11.0,26.0,73,-99.99,,,-99.99,,2013-02-19 16:42:00,
2013-02-19 10:52:00,10.0,3.0,-100.00,North,5,11.0,32.0,72,-99.99,,,-99.99,,2013-02-19 16:52:00,
2013-02-19 11:01:00,10.0,3.0,-100.00,North,5,11.0,32.0,72,-99.99,,,-99.99,,2013-02-19 17:01:00,
2013-02-19 11:11:00,10.0,3.0,-100.00,North,5,16.0,31.0,72,-99.99,,,-99.99,,2013-02-19 17:11:00,
2013-02-19 11:21:00,10.0,3.0,-100.00,North,5,11.0,37.0,72,-99.99,,,-99.99,,2013-02-19 17:21:00,
2013-02-19 11:32:00,10.0,3.0,-100.00,North,5,11.0,37.0,72,-99.99,,,-99.99,,2013-02-19 17:32:00,
2013-02-19 11:42:00,11.0,3.0,-100.00,North,5,12.0,24.0,71,-99.99,,,-99.99,,2013-02-19 17:42:00,
2013-02-19 11:52:00,11.0,3.0,-100.00,North,5,11.0,32.0,71,-99.99,,,-99.99,,2013-02-19 17:52:00,
2013-02-19 12:01:00,11.0,3.0,-100.00,North,5,11.0,32.0,71,-99.99,,,-99.99,,2013-02-19 18:01:00,
2013-02-19 12:11:00,11.0,3.0,-100.00,North,5,13.0,27.0,71,-99.99,,,-99.99,,2013-02-19 18:11:00,
2013-02-19 12:21:00,11.0,4.0,-100.00,North,5,11.0,22.0,72,-99.99,,,-99.99,,2013-02-19 18:21:00,
2013-02-19 12:32:00,11.0,4.0,-100.00,North,5,11.0,22.0,72,-99.99,,,-99.99,,2013-02-19 18:32:00,
2013-02-19 12:42:00,12.0,5.0,-100.00,North,5,9.0,24.0,74,-99.99,,,-99.99,,2013-02-19 18:42:00,
2013-02-19 12:52:00,12.0,5.0,-100.00,North,5,12.0,26.0,74,-99.99,,,-99.99,,2013-02-19 18:52:00,
2013-02-19 13:01:00,12.0,5.0,-100.00,North,5,12.0,26.0,74,-99.99,,,-99.99,,2013-02-19 19:01:00,
2013-02-19 13:11:00,12.0,6.0,-100.00,North,5,10.0,19.0,74,-99.99,,,-99.99,,2013-02-19 19:11:00,
2013-02-19 13:21:00,13.0,6.0,-100.00,North,5,10.0,30.0,72,-99.99,,,-99.99,,2013-02-19 19:21:00,
2013-02-19 13:32:00,13.0,6.0,-100.00,North,5,10.0,30.0,72,-99.99,,,-99.99,,2013-02-19 19:32:00,
2013-02-19 13:42:00,13.0,5.0,-100.00,North,5,16.0,29.0,71,-99.99,,,-99.99,,2013-02-19 19:42:00,
2013-02-19 13:52:00,13.0,6.0,-100.00,North,5,13.0,30.0,72,-99.99,,,-99.99,,2013-02-19 19:52:00,
2013-02-19 14:01:00,13.0,6.0,-100.00,North,5,13.0,30.0,72,-99.99,,,-99.99,,2013-02-19 20:01:00,
2013-02-19 14:12:00,15.0,7.0,-100.00,North,5,9.0,29.0,71,-99.99,,,-99.99,,2013-02-19 20:12:00,
2013-02-19 14:21:00,14.0,7.0,-100.00,North,5,16.0,29.0,72,-99.99,,,-99.99,,2013-02-19 20:21:00,
2013-02-19 14:32:00,14.0,7.0,-100.00,North,5,16.0,29.0,72,-99.99,,,-99.99,,2013-02-19 20:32:00,
2013-02-19 14:42:00,15.0,7.0,-100.00,North,5,14.0,29.0,71,-99.99,,,-99.99,,2013-02-19 20:42:00,
2013-02-19 14:52:00,16.0,8.0,-100.00,North,5,11.0,24.0,71,-99.99,,,-99.99,,2013-02-19 20:52:00,
2013-02-19 15:02:00,16.0,8.0,-100.00,North,5,11.0,24.0,71,-99.99,,,-99.99,,2013-02-19 21:02:00,
2013-02-19 15:11:00,17.0,9.0,-100.00,North,5,11.0,27.0,71,-99.99,,,-99.99,,2013-02-19 21:11:00,
2013-02-19 15:21:00,17.0,9.0,-100.00,North,5,16.0,34.0,70,-99.99,,,-99.99,,2013-02-19 21:21:00,
2013-02-19 15:32:00,17.0,9.0,-100.00,North,5,16.0,34.0,70,-99.99,,,-99.99,,2013-02-19 21:32:00,
2013-02-19 15:42:00,18.0,10.0,-100.00,North,5,13.0,26.0,69,-99.99,,,-99.99,,2013-02-19 21:42:00,
2013-02-19 15:52:00,17.0,9.0,-100.00,North,5,11.0,23.0,70,-99.99,,,-99.99,,2013-02-19 21:52:00,
2013-02-19 16:02:00,17.0,9.0,-100.00,North,5,11.0,23.0,70,-99.99,,,-99.99,,2013-02-19 22:02:00,
2013-02-19 16:11:00,17.0,9.0,-100.00,North,5,12.0,21.0,70,-99.99,,,-99.99,,2013-02-19 22:11:00,
2013-02-19 16:21:00,18.0,10.0,-100.00,North,5,11.0,23.0,69,-99.99,,,-99.99,,2013-02-19 22:21:00,
2013-02-19 16:32:00,18.0,10.0,-100.00,North,5,11.0,23.0,69,-99.99,,,-99.99,,2013-02-19 22:32:00,
2013-02-19 16:41:00,18.0,9.0,-100.00,North,5,10.0,24.0,69,-99.99,,,-99.99,,2013-02-19 22:41:00,
2013-02-19 16:52:00,18.0,9.0,-100.00,North,5,15.0,29.0,69,-99.99,,,-99.99,,2013-02-19 22:52:00,
2013-02-19 17:01:00,18.0,9.0,-100.00,North,5,15.0,29.0,69,-99.99,,,-99.99,,2013-02-19 23:01:00,
2013-02-19 17:11:00,18.0,10.0,-100.00,North,5,8.0,21.0,69,-99.99,,,-99.99,,2013-02-19 23:11:00,
2013-02-19 17:21:00,18.0,9.0,-100.00,North,5,9.0,23.0,69,-99.99,,,-99.99,,2013-02-19 23:21:00,
2013-02-19 17:32:00,18.0,9.0,-100.00,North,5,9.0,23.0,69,-99.99,,,-99.99,,2013-02-19 23:32:00,
2013-02-19 17:42:00,17.0,9.0,-100.00,North,5,7.0,24.0,69,-99.99,,,-99.99,,2013-02-19 23:42:00,
2013-02-19 17:52:00,17.0,9.0,-100.00,North,5,8.0,18.0,70,-99.99,,,-99.99,,2013-02-19 23:52:00,
2013-02-19 18:01:00,17.0,9.0,-100.00,North,5,8.0,18.0,70,-99.99,,,-99.99,,2013-02-20 00:01:00,
2013-02-19 18:11:00,16.0,8.0,-100.00,North,5,6.0,19.0,70,-99.99,,,-99.99,,2013-02-20 00:11:00,
2013-02-19 18:21:00,16.0,8.0,-100.00,North,5,6.0,15.0,70,-99.99,,,-99.99,,2013-02-20 00:21:00,
2013-02-19 18:32:00,16.0,8.0,-100.00,North,5,6.0,15.0,70,-99.99,,,-99.99,,2013-02-20 00:32:00,
2013-02-19 18:42:00,16.0,8.0,-100.00,North,5,8.0,19.0,71,-99.99,,,-99.99,,2013-02-20 00:42:00,
2013-02-19 18:52:00,15.0,8.0,-100.00,North,5,7.0,14.0,71,-99.99,,,-99.99,,2013-02-20 00:52:00,
2013-02-19 19:02:00,15.0,8.0,-100.00,North,5,7.0,14.0,71,-99.99,,,-99.99,,2013-02-20 01:02:00,
2013-02-19 19:11:00,15.0,8.0,-100.00,North,5,9.0,18.0,71,-99.99,,,-99.99,,2013-02-20 01:11:00,
2013-02-19 19:21:00,15.0,7.0,-100.00,North,5,7.0,16.0,71,-99.99,,,-99.99,,2013-02-20 01:21:00,
2013-02-19 19:32:00,15.0,7.0,-100.00,North,5,7.0,16.0,71,-99.99,,,-99.99,,2013-02-20 01:32:00,
2013-02-19 19:42:00,15.0,7.0,-100.00,North,5,5.0,11.0,71,-99.99,,,-99.99,,2013-02-20 01:42:00,
2013-02-19 19:52:00,15.0,7.0,-100.00,North,5,7.0,18.0,71,-99.99,,,-99.99,,2013-02-20 01:52:00,
2013-02-19 20:01:00,15.0,7.0,-100.00,North,5,7.0,18.0,71,-99.99,,,-99.99,,2013-02-20 02:01:00,
2013-02-19 20:11:00,14.0,6.0,-100.00,North,5,9.0,19.0,70,-99.99,,,-99.99,,2013-02-20 02:11:00,
2013-02-19 20:21:00,14.0,6.0,-100.00,North,5,7.0,13.0,71,-99.99,,,-99.99,,2013-02-20 02:21:00,
2013-02-19 20:32:00,14.0,6.0,-100.00,North,5,7.0,13.0,71,-99.99,,,-99.99,,2013-02-20 02:32:00,
2013-02-19 20:42:00,13.0,6.0,-100.00,North,5,6.0,14.0,72,-99.99,,,-99.99,,2013-02-20 02:42:00,
2013-02-19 20:52:00,13.0,6.0,-100.00,North,5,6.0,15.0,72,-99.99,,,-99.99,,2013-02-20 02:52:00,
2013-02-19 21:02:00,13.0,6.0,-100.00,North,5,6.0,15.0,72,-99.99,,,-99.99,,2013-02-20 03:02:00,
2013-02-19 21:12:00,13.0,5.0,-100.00,North,5,5.0,11.0,72,-99.99,,,-99.99,,2013-02-20 03:12:00,
2013-02-19 21:22:00,12.0,5.0,-100.00,North,5,6.0,14.0,72,-99.99,,,-99.99,,2013-02-20 03:22:00,
2013-02-19 21:32:00,12.0,5.0,-100.00,North,5,6.0,14.0,72,-99.99,,,-99.99,,2013-02-20 03:32:00,
2013-02-19 21:42:00,12.0,5.0,-100.00,North,5,6.0,11.0,73,-99.99,,,-99.99,,2013-02-20 03:42:00,
2013-02-19 21:52:00,11.0,4.0,-100.00,North,5,6.0,11.0,73,-99.99,,,-99.99,,2013-02-20 03:52:00,
2013-02-19 22:01:00,11.0,4.0,-100.00,North,5,6.0,11.0,73,-99.99,,,-99.99,,2013-02-20 04:01:00,
2013-02-19 22:11:00,11.0,3.0,-100.00,North,5,7.0,14.0,72,-99.99,,,-99.99,,2013-02-20 04:11:00,
2013-02-19 22:21:00,10.0,3.0,-100.00,North,5,6.0,11.0,72,-99.99,,,-99.99,,2013-02-20 04:21:00,
2013-02-19 22:31:00,10.0,3.0,-100.00,North,5,6.0,11.0,72,-99.99,,,-99.99,,2013-02-20 04:31:00,
2013-02-19 22:42:00,10.0,2.0,-100.00,North,5,6.0,11.0,72,-99.99,,,-99.99,,2013-02-20 04:42:00,
2013-02-19 22:52:00,9.0,3.0,-100.00,North,5,5.0,11.0,73,-99.99,,,-99.99,,2013-02-20 04:52:00,
2013-02-19 23:02:00,9.0,3.0,-100.00,North,5,5.0,11.0,73,-99.99,,,-99.99,,2013-02-20 05:02:00,
2013-02-19 23:12:00,9.0,2.0,-100.00,North,5,6.0,14.0,72,-99.99,,,-99.99,,2013-02-20 05:12:00,
2013-02-19 23:22:00,8.0,1.0,-100.00,North,5,6.0,10.0,72,-99.99,,,-99.99,,2013-02-20 05:22:00,
2013-02-19 23:32:00,8.0,1.0,-100.00,North,5,6.0,10.0,72,-99.99,,,-99.99,,2013-02-20 05:32:00,
2013-02-19 23:43:00,8.0,1.0,-100.00,North,5,6.0,11.0,72,-99.99,,,-99.99,,2013-02-20 05:43:00,
2013-02-19 23:52:00,8.0,1.0,-100.00,North,5,6.0,10.0,72,-99.99,,,-99.99,,2013-02-20 05:52:00,